Find Starlink 34511

NORAD ID: 65214 Int'l Des: 2025-176 Owner: SPXS Country: US Constellation: starlink operational
LEOCIRCULAR

リアルタイム位置

3D地球を読み込み中...

Starlink 34511について

説明を読み込み中...

次回通過

Passes for default location (London). Set your location on the main map for personalized predictions.

高度履歴

Loading altitude history...

軌道要素

1 65214U 25176S 26104.93227254 .00017474 00000-0 60050-3 0 9993
2 65214 53.1627 344.7897 0001903 91.1594 268.9625 15.30210217 38605
Epoch: Apr 14, 2026 • Age: 10 hours

現在のステータス

高度 477.9 km
速度 7.63 km/s
衛星直下点 41.20°N, 153.8°E
打ち上げ日 Aug 14, 2025
運用期間 0.6 years
タイプ internet

技術仕様

分類 Payload
質量 575.00 kg
乾燥質量 530.00 kg
総質量 575.00 kg
長さ 0.30 m
直径 4.10 m
スパン 29.00 m
形状 Box + pan
製造者 SPXS
バスタイプ Starlink V2MO
フェーズステータス In Orbit
所有者/国 SPXS/US

Most Searched